timestamp,surface_pressure_avg,surface_temp_avg,battery_voltage,lat,long
2018-10-29 00:00:00+00:00,284.1881,10.0,12.89,47.84626,-54.09684
2018-10-29 00:10:00+00:00,286.6931,10.0,12.81,47.84626,-54.09684
2018-10-29 00:20:00+00:00,294.8514,10.01,12.89,47.84626,-54.09684
2018-10-29 00:30:00+00:00,303.2281,10.08,12.89,47.84626,-54.09684
2018-10-29 00:40:00+00:00,302.2414,10.06,12.89,47.84626,-54.09684
2018-10-29 00:50:00+00:00,306.4963,10.1,12.97,47.84626,-54.09684
2018-10-29 01:00:00+00:00,317.5813,10.1,12.89,47.84626,-54.09684
2018-10-29 01:10:00+00:00,323.0163,10.1,12.81,47.84626,-54.09684
2018-10-29 01:20:00+00:00,321.6165,10.1,12.89,47.84626,-54.09684
2018-10-29 01:30:00+00:00,329.788,10.1,12.89,47.84626,-54.09684
2018-10-29 01:40:00+00:00,335.4714,10.1,12.89,47.84626,-54.09684
2018-10-29 01:50:00+00:00,333.338,10.1,12.97,47.84626,-54.09684
2018-10-29 02:00:00+00:00,332.1114,10.1,12.89,47.84626,-54.09684
2018-10-29 02:10:00+00:00,337.2112,10.1,12.81,47.84626,-54.09684
2018-10-29 02:20:00+00:00,339.7447,10.1,12.89,47.84626,-54.09684
2018-10-29 02:30:00+00:00,337.7897,10.1,12.89,47.84626,-54.09684
2018-10-29 02:40:00+00:00,334.983,10.1,12.89,47.84626,-54.09684
2018-10-29 02:50:00+00:00,332.098,10.1,12.89,47.84626,-54.09684
2018-10-29 03:00:00+00:00,334.423,10.1,12.89,47.84626,-54.09684
2018-10-29 03:10:00+00:00,336.1079,10.1,12.81,47.84626,-54.09684
2018-10-29 03:20:00+00:00,331.9813,10.0,12.89,47.84626,-54.09684
2018-10-29 03:30:00+00:00,324.5846,9.84,12.89,47.84626,-54.09684
2018-10-29 03:40:00+00:00,320.9614,9.9,12.89,47.84626,-54.09684
2018-10-29 03:50:00+00:00,323.2397,9.9,12.89,47.84626,-54.09684
2018-10-29 04:00:00+00:00,311.7947,9.9,12.81,47.84626,-54.09684
2018-10-29 04:10:00+00:00,300.7513,9.9,12.81,47.84626,-54.09684
2018-10-29 04:20:00+00:00,300.9064,9.9,12.89,47.84626,-54.09684
2018-10-29 04:30:00+00:00,297.8864,9.9,12.89,47.84626,-54.09684
2018-10-29 04:40:00+00:00,280.1297,9.9,12.89,47.84626,-54.09684
2018-10-29 04:50:00+00:00,269.7247,9.9,12.89,47.84626,-54.09684
2018-10-29 05:00:00+00:00,269.5064,9.95,12.81,47.84626,-54.09684
2018-10-29 05:10:00+00:00,261.5397,9.9,12.81,47.84626,-54.09684
2018-10-29 05:20:00+00:00,249.7214,9.92,12.89,47.84626,-54.09684
2018-10-29 05:30:00+00:00,247.838,9.97,12.89,47.84626,-54.09684
2018-10-29 05:40:00+00:00,243.6331,9.9,12.89,47.84626,-54.09684
2018-10-29 05:50:00+00:00,230.4331,9.9,12.89,47.84626,-54.09684
2018-10-29 06:00:00+00:00,222.8364,9.9,12.81,47.84626,-54.09684
2018-10-29 06:10:00+00:00,218.5098,9.87,12.81,47.84626,-54.09684
2018-10-29 06:20:00+00:00,209.4914,9.89,12.89,47.84626,-54.09684
2018-10-29 06:30:00+00:00,201.0865,9.87,12.89,47.84626,-54.09684
2018-10-29 06:40:00+00:00,196.7481,9.8,12.89,47.84626,-54.09684
2018-10-29 06:50:00+00:00,193.3964,9.8,12.89,47.84626,-54.09684
2018-10-29 07:00:00+00:00,187.2981,9.63,12.81,47.84626,-54.09684
2018-10-29 07:10:00+00:00,184.5431,9.4,12.81,47.84626,-54.09684
2018-10-29 07:20:00+00:00,187.0898,9.4,12.81,47.84626,-54.09684
2018-10-29 07:30:00+00:00,186.3998,9.4,12.89,47.84626,-54.09684
2018-10-29 07:40:00+00:00,187.9565,9.5,12.89,47.84626,-54.09684
2018-10-29 07:50:00+00:00,187.8048,9.5,12.89,47.84626,-54.09684
2018-10-29 08:00:00+00:00,184.7131,9.5,12.81,47.84626,-54.09684
2018-10-29 08:10:00+00:00,186.2348,9.5,12.73,47.84626,-54.09684
2018-10-29 08:20:00+00:00,190.7448,9.5,12.81,47.84626,-54.09684
2018-10-29 08:30:00+00:00,191.4264,9.51,12.89,47.84626,-54.09684
2018-10-29 08:40:00+00:00,193.3698,9.6,12.89,47.84626,-54.09684
2018-10-29 08:50:00+00:00,202.0348,9.65,12.89,47.84626,-54.09684
2018-10-29 09:00:00+00:00,202.5598,9.7,12.81,47.84626,-54.09684
2018-10-29 09:10:00+00:00,199.6631,9.7,12.73,47.84626,-54.09684
2018-10-29 09:20:00+00:00,207.9797,9.7,12.81,47.84626,-54.09684
2018-10-29 09:30:00+00:00,218.3331,9.8,12.81,47.84626,-54.09684
2018-10-29 09:40:00+00:00,217.0881,9.79,12.89,47.84626,-54.09684
2018-10-29 09:50:00+00:00,215.8765,9.7,12.89,47.84626,-54.09684
2018-10-29 10:00:00+00:00,223.0531,9.77,12.81,47.84626,-54.09684
2018-10-29 10:10:00+00:00,228.1898,9.8,12.73,47.84626,-54.09684
2018-10-29 10:20:00+00:00,229.7865,9.8,12.81,47.84626,-54.09684
2018-10-29 10:30:00+00:00,235.3214,9.8,12.81,47.84626,-54.09684
2018-10-29 10:40:00+00:00,245.1097,9.81,12.89,47.84626,-54.09684
2018-10-29 10:50:00+00:00,249.4281,9.85,12.89,47.84626,-54.09684
2018-10-29 11:00:00+00:00,248.6714,9.82,12.81,47.84626,-54.09684
2018-10-29 11:10:00+00:00,255.3714,9.8,12.73,47.84626,-54.09684
2018-10-29 11:20:00+00:00,262.2514,9.8,12.81,47.84626,-54.09684
2018-10-29 11:30:00+00:00,265.1814,9.8,12.81,47.84626,-54.09684
2018-10-29 11:40:00+00:00,260.9698,9.7,12.89,47.84626,-54.09684
2018-10-29 11:50:00+00:00,263.3997,9.73,12.89,47.84626,-54.09684
2018-10-29 12:00:00+00:00,271.6214,9.8,12.81,47.84626,-54.09684
2018-10-29 12:10:00+00:00,279.5647,9.9,12.81,47.84626,-54.09684
2018-10-29 12:20:00+00:00,284.1231,9.9,12.89,47.84626,-54.09684
2018-10-29 12:30:00+00:00,296.2147,9.9,12.89,47.84626,-54.09684
2018-10-29 12:40:00+00:00,309.3147,9.9,12.89,47.84626,-54.09684
2018-10-29 12:50:00+00:00,317.8081,9.9,12.89,47.84626,-54.09684
2018-10-29 13:00:00+00:00,323.9913,9.9,12.89,47.84626,-54.09684
2018-10-29 13:10:00+00:00,332.8446,9.9,12.81,47.84626,-54.09684
2018-10-29 13:20:00+00:00,334.6829,9.9,12.89,47.84626,-54.09684
2018-10-29 13:30:00+00:00,338.1046,9.9,12.89,47.84626,-54.09684
2018-10-29 13:40:00+00:00,340.9229,9.9,12.97,47.84626,-54.09684
2018-10-29 13:50:00+00:00,343.9346,9.9,13.05,47.84626,-54.09684
2018-10-29 14:00:00+00:00,345.1296,9.9,13.05,47.84626,-54.09684
2018-10-29 14:10:00+00:00,358.1063,9.9,13.05,47.84626,-54.09684
2018-10-29 14:20:00+00:00,383.4696,9.9,13.13,47.84626,-54.09684
2018-10-29 14:30:00+00:00,381.2746,9.9,13.13,47.84626,-54.09684
2018-10-29 14:40:00+00:00,362.2029,9.88,13.21,47.84626,-54.09684
2018-10-29 14:50:00+00:00,363.5163,9.9,13.21,47.84626,-54.09684
2018-10-29 15:00:00+00:00,368.0329,9.9,13.21,47.84626,-54.09684
2018-10-29 15:10:00+00:00,356.9197,9.9,13.05,47.84626,-54.09684
2018-10-29 15:20:00+00:00,350.0396,9.9,13.21,47.84626,-54.09684
2018-10-29 15:30:00+00:00,355.6646,9.9,13.21,47.84626,-54.09684
2018-10-29 15:40:00+00:00,351.0596,9.9,13.37,47.84626,-54.09684
2018-10-29 15:50:00+00:00,341.3297,9.9,13.37,47.84626,-54.09684
2018-10-29 16:00:00+00:00,343.1429,9.9,13.29,47.84626,-54.09684
2018-10-29 16:10:00+00:00,352.8029,9.9,13.21,47.84626,-54.09684
2018-10-29 16:20:00+00:00,346.2863,9.9,13.29,47.84626,-54.09684
2018-10-29 16:30:00+00:00,337.1613,9.9,13.37,47.84626,-54.09684
2018-10-29 16:40:00+00:00,339.9613,9.9,13.29,47.84626,-54.09684
2018-10-29 16:50:00+00:00,332.2463,9.83,13.29,47.84626,-54.09684
2018-10-29 17:00:00+00:00,316.183,9.8,13.29,47.84626,-54.09684
2018-10-29 17:10:00+00:00,310.028,9.8,13.13,47.84626,-54.09684
2018-10-29 17:20:00+00:00,304.4313,9.8,13.21,47.84626,-54.09684
2018-10-29 17:30:00+00:00,297.3347,9.8,13.21,47.84626,-54.09684
2018-10-29 17:40:00+00:00,286.1764,9.8,13.29,47.84626,-54.09684
2018-10-29 17:50:00+00:00,276.8914,9.8,13.29,47.84626,-54.09684
2018-10-29 18:00:00+00:00,265.7064,9.8,13.21,47.84626,-54.09684
2018-10-29 18:10:00+00:00,254.8148,9.8,13.13,47.84626,-54.09684
2018-10-29 18:20:00+00:00,242.8981,9.79,13.13,47.84626,-54.09684
2018-10-29 18:30:00+00:00,232.6964,9.75,13.13,47.84626,-54.09684
2018-10-29 18:40:00+00:00,223.9914,9.7,13.13,47.84626,-54.09684
2018-10-29 18:50:00+00:00,216.2514,9.7,13.13,47.84626,-54.09684
2018-10-29 19:00:00+00:00,212.0081,9.7,13.05,47.84626,-54.09684
2018-10-29 19:10:00+00:00,209.4431,9.7,12.97,47.84626,-54.09684
2018-10-29 19:20:00+00:00,200.7765,9.7,13.05,47.84626,-54.09684
2018-10-29 19:30:00+00:00,193.7831,9.7,13.05,47.84626,-54.09684
2018-10-29 19:40:00+00:00,191.3631,9.7,13.05,47.84626,-54.09684
2018-10-29 19:50:00+00:00,187.5231,9.7,13.05,47.84626,-54.09684
2018-10-29 20:00:00+00:00,182.3281,9.7,12.97,47.84626,-54.09684
2018-10-29 20:10:00+00:00,182.4381,9.7,12.89,47.84626,-54.09684
2018-10-29 20:20:00+00:00,183.3648,9.7,12.97,47.84626,-54.09684
2018-10-29 20:30:00+00:00,183.6115,9.7,12.97,47.84626,-54.09684
2018-10-29 20:40:00+00:00,189.9531,9.7,12.97,47.84626,-54.09684
2018-10-29 20:50:00+00:00,196.0515,9.7,12.97,47.84626,-54.09684
2018-10-29 21:00:00+00:00,195.4798,9.7,12.89,47.84626,-54.09684
2018-10-29 21:10:00+00:00,193.8431,9.7,12.81,47.84626,-54.09684
2018-10-29 21:20:00+00:00,197.6448,9.69,12.89,47.84626,-54.09684
2018-10-29 21:30:00+00:00,198.4481,9.6,12.89,47.84626,-54.09684
2018-10-29 21:40:00+00:00,197.7631,9.6,12.89,47.84626,-54.09684
2018-10-29 21:50:00+00:00,200.5247,9.6,12.97,47.84626,-54.09684
2018-10-29 22:00:00+00:00,205.2914,9.6,12.89,47.84626,-54.09684
2018-10-29 22:10:00+00:00,209.3698,9.6,12.81,47.84626,-54.09684
2018-10-29 22:20:00+00:00,214.1965,9.6,12.89,47.84626,-54.09684
2018-10-29 22:30:00+00:00,220.3914,9.6,12.89,47.84626,-54.09684
2018-10-29 22:40:00+00:00,225.2748,9.6,12.89,47.84626,-54.09684
2018-10-29 22:50:00+00:00,227.2615,9.6,12.89,47.84626,-54.09684
2018-10-29 23:00:00+00:00,228.7548,9.59,12.81,47.84626,-54.09684
2018-10-29 23:10:00+00:00,229.3914,9.59,12.81,47.84626,-54.09684
2018-10-29 23:20:00+00:00,231.358,9.6,12.89,47.84626,-54.09684
2018-10-29 23:30:00+00:00,231.7615,9.6,12.89,47.84626,-54.09684
2018-10-29 23:40:00+00:00,233.3647,9.6,12.89,47.84626,-54.09684
2018-10-29 23:50:00+00:00,236.9581,9.6,12.89,47.84626,-54.09684
